Clemson, SC

3:13 AM EDT on April 25, 2017 (GMT -0400)
Oconee County Regional

Weather History for KCEU - August, 2013

Change the Weather History Date:

Friday, August 30, 2013

  Actual Average Record
Temperature  
Mean Temperature 80 °F -  
Max Temperature 84 °F 87 °F 98 °F (1932)
Min Temperature 75 °F 65 °F 54 °F (1965)
Cooling Degree Days 14    
Growing Degree Days 30 (Base 50)    
Moisture  
Dew Point 71 °F    
Average Humidity 81    
Maximum Humidity 89    
Minimum Humidity 60    
Precipitation  
Precipitation 0.49 in - - ()
Sea Level Pressure  
Sea Level Pressure 30.03 in    
Wind  
Wind Speed 3 mph (NE)    
Max Wind Speed 8 mph    
Max Gust Speed -    
Visibility 6 miles    
Events Rain    
Averages and records for this station are not official NWS values.
T = Trace of Precipitation, MM = Missing Value Source: NWS Daily Summary

Daily Weather History Graph

Daily Weather History Graph

Search for Another Location

Airport or City:

Trip Planner

Search our weather history database for the weather conditions in past years. The results will help you decide how hot, cold, wet, or windy it might be!

Date:

Astronomy

Aug. 30, 2013 Rise Set
Actual Time 7:03 AM EDT 8:00 PM EDT
Civil Twilight 6:37 AM EDT 8:26 PM EDT
Nautical Twilight 6:06 AM EDT 8:56 PM EDT
Astronomical Twilight 5:35 AM EDT 9:28 PM EDT
Moon 1:48 AM EDT (8/30) 4:07 PM EDT (8/30)
Length of Visible Light 13h 48m
Length of Day
12h 57m
Waning Crescent, 29% of the Moon is Illuminated
Aug 30
Waning Crescent
Sep 5
New
Sep 12
First Quarter
Sep 19
Full
Sep 26
Last Quarter

Hourly Weather History & Observations

Time (EDT) Temp. Heat Index Dew Point Humidity Pressure Visibility Wind Dir Wind Speed Gust Speed Precip Events Conditions
12:54 AM 78.1 °F - 72.0 °F 81% 29.96 in 6.0 mi Calm Calm - N/A   Haze
1:54 AM 79.0 °F - 72.0 °F 79% 29.96 in 8.0 mi NNE 3.5 mph - N/A   Partly Cloudy
2:54 AM 78.1 °F - 70.0 °F 76% 29.98 in 9.0 mi NE 8.1 mph - N/A   Clear
3:54 AM 78.1 °F - 71.1 °F 79% 29.98 in 10.0 mi NE 6.9 mph - N/A   Overcast
4:12 AM 78.8 °F - 71.6 °F 78% 30.02 in 10.0 mi NNE 4.6 mph - N/A   Overcast
4:54 AM 77.0 °F - 72.0 °F 84% 29.98 in 9.0 mi NE 4.6 mph - 0.00 in Rain Light Rain
5:07 AM 75.2 °F - 71.6 °F 89% 30.02 in 8.0 mi North 3.5 mph - 0.00 in   Overcast
5:35 AM 75.2 °F - 71.6 °F 89% 30.03 in 8.0 mi NNE 5.8 mph - 0.00 in   Overcast
5:54 AM 75.9 °F - 71.1 °F 85% 29.99 in 7.0 mi NNE 4.6 mph - 0.00 in   Overcast
6:05 AM 75.2 °F - 71.6 °F 89% 30.03 in 8.0 mi NNE 4.6 mph - N/A   Overcast
6:54 AM 75.9 °F - 71.1 °F 85% 30.01 in 9.0 mi ENE 3.5 mph - N/A   Overcast
7:01 AM 75.2 °F - 69.8 °F 83% 30.05 in 9.0 mi ENE 5.8 mph - N/A   Overcast
7:54 AM 75.0 °F - 71.1 °F 87% 30.03 in 3.0 mi East 5.8 mph - 0.02 in Rain Light Rain
8:54 AM 75.9 °F - 71.1 °F 85% 30.04 in 4.0 mi East 4.6 mph - 0.00 in   Haze
9:54 AM 75.9 °F - 70.0 °F 82% 30.06 in 6.0 mi Variable 4.6 mph - N/A   Haze
10:42 AM 75.2 °F - 69.8 °F 83% 30.09 in 2.5 mi ENE 6.9 mph - 0.09 in Rain Heavy Rain
10:54 AM 75.0 °F - 70.0 °F 84% 30.06 in 3.0 mi ENE 4.6 mph - 0.12 in Rain Rain
11:34 AM 75.2 °F - 71.6 °F 89% 30.10 in 2.5 mi Calm Calm - 0.04 in Rain Light Rain
11:41 AM 75.2 °F - 71.6 °F 89% 30.10 in 2.5 mi Calm Calm - 0.05 in Rain Rain
11:49 AM 75.2 °F - 69.8 °F 83% 30.10 in 3.0 mi Calm Calm - 0.05 in Rain Light Rain
11:54 AM 75.0 °F - 70.0 °F 84% 30.06 in 4.0 mi Calm Calm - 0.06 in Rain Rain
12:14 PM 75.2 °F - 71.6 °F 89% 30.09 in 3.0 mi ESE 4.6 mph - 0.04 in Rain Rain
12:23 PM 75.2 °F - 71.6 °F 89% 30.09 in 2.0 mi East 3.5 mph - 0.10 in Rain Heavy Rain
12:27 PM 75.2 °F - 69.8 °F 83% 30.09 in 1.8 mi East 3.5 mph - 0.13 in Rain Heavy Rain
12:47 PM 75.2 °F - 71.6 °F 89% 30.08 in 2.0 mi Calm Calm - 0.28 in Rain Rain
12:54 PM 75.9 °F - 72.0 °F 87% 30.05 in 2.5 mi Calm Calm - 0.29 in Rain Light Rain
12:57 PM 75.2 °F - 71.6 °F 89% 30.08 in 3.0 mi Calm Calm - 0.00 in Rain Light Rain
1:35 PM 77.0 °F - 71.6 °F 83% 30.08 in 6.0 mi Calm Calm - 0.00 in   Haze
1:54 PM 78.1 °F - 71.1 °F 79% 30.04 in 6.0 mi Calm Calm - 0.00 in   Haze
2:54 PM 81.0 °F 85.2 °F 72.0 °F 74% 30.01 in 8.0 mi ENE 4.6 mph - N/A   Mostly Cloudy
3:02 PM 80.6 °F 84.6 °F 71.6 °F 74% 30.04 in 9.0 mi NE 3.5 mph - N/A   Mostly Cloudy
3:17 PM 82.4 °F 86.3 °F 69.8 °F 66% 30.04 in 10.0 mi Variable 3.5 mph - N/A   Scattered Clouds
3:54 PM 82.0 °F 85.5 °F 69.1 °F 65% 29.99 in 10.0 mi East 3.5 mph - N/A   Clear
4:54 PM 84.0 °F 87.8 °F 69.1 °F 61% 29.96 in 10.0 mi Calm Calm - N/A   Clear
5:54 PM 82.9 °F 85.8 °F 68.0 °F 60% 29.96 in 10.0 mi Calm Calm - N/A   Clear
6:54 PM 81.0 °F 84.9 °F 71.1 °F 72% 29.96 in 10.0 mi Calm Calm - N/A   Clear
7:54 PM 78.1 °F - 71.1 °F 79% 29.96 in 10.0 mi Calm Calm - N/A   Clear
8:54 PM 77.0 °F - 70.0 °F 79% 29.96 in 10.0 mi Calm Calm - N/A   Clear
9:54 PM 78.1 °F - 73.0 °F 84% 29.98 in 7.0 mi Calm Calm - N/A   Mostly Cloudy
10:54 PM 77.0 °F - 73.0 °F 88% 29.98 in 6.0 mi Calm Calm - N/A   Mostly Cloudy
11:54 PM 77.0 °F - 72.0 °F 84% 29.98 in 8.0 mi Calm Calm - N/A   Overcast